| time (UTC) | temp C | wind direction | speed KPH | gust KPH | rain 1hr cm | rain 24hr cm | rain mn cm | humidity % | barometer mb |
| 20260507140843 | 12 | 305 | 0.0 | 0.0 | 0.00 | 0.28 | 0.28 | 62 | 1012.6 |
| 20260507140339 | 12 | 63 | 0.0 | 1.6 | 0.00 | 0.28 | 0.28 | 62 | 1012.6 |
| 20260507135837 | 12 | 127 | 0.0 | 1.6 | 0.00 | 0.28 | 0.28 | 61 | 1012.7 |
| 20260507135334 | 12 | 295 | 0.0 | 1.6 | 0.00 | 0.28 | 0.28 | 61 | 1012.6 |
| 20260507134831 | 12 | 230 | 0.0 | 0.0 | 0.00 | 0.28 | 0.28 | 63 | 1012.8 |
| 20260507134327 | 12 | 231 | 0.0 | 0.0 | 0.00 | 0.28 | 0.28 | 67 | 1012.7 |
| 20260507133823 | 12 | 230 | 0.0 | 1.6 | 0.00 | 0.28 | 0.28 | 64 | 1012.9 |
| 20260507133319 | 12 | 254 | 0.0 | 0.0 | 0.00 | 0.28 | 0.28 | 65 | 1012.6 |
| 20260507132818 | 12 | 206 | 0.0 | 3.2 | 0.00 | 0.28 | 0.28 | 65 | 1012.7 |
| 20260507132314 | 12 | 244 | 0.0 | 1.6 | 0.00 | 0.28 | 0.28 | 63 | 1012.8 |
| 20260507131811 | 12 | 278 | 4.8 | 6.4 | 0.00 | 0.28 | 0.28 | 61 | 1013.0 |
| 20260507131308 | 12 | 87 | 0.0 | 1.6 | 0.00 | 0.28 | 0.28 | 70 | 1012.8 |
| 20260507130804 | 12 | 95 | 0.0 | 3.2 | 0.00 | 0.28 | 0.28 | 62 | 1012.6 |
| 20260507130302 | 12 | 76 | 0.0 | 1.6 | 0.00 | 0.28 | 0.28 | 67 | 1012.7 |
| 20260507125801 | 12 | 111 | 0.0 | 1.6 | 0.00 | 0.28 | 0.28 | 64 | 1012.7 |
| 20260507125258 | 12 | 116 | 0.0 | 1.6 | 0.00 | 0.28 | 0.28 | 60 | 1012.6 |
| 20260507124755 | 12 | 52 | 0.0 | 6.4 | 0.00 | 0.28 | 0.28 | 60 | 1012.5 |
| 20260507124251 | 12 | 86 | 1.6 | 3.2 | 0.00 | 0.28 | 0.28 | 62 | 1012.3 |
| 20260507123750 | 12 | 256 | 1.6 | 3.2 | 0.00 | 0.28 | 0.28 | 62 | 1012.5 |
| 20260507123247 | 12 | 90 | 1.6 | 3.2 | 0.00 | 0.28 | 0.28 | 68 | 1012.5 |
| 20260507122742 | 12 | 296 | 3.2 | 4.8 | 0.00 | 0.28 | 0.28 | 69 | 1012.6 |
| 20260507122238 | 12 | 289 | 0.0 | 1.6 | 0.00 | 0.28 | 0.28 | 78 | 1012.8 |
| 20260507121734 | 12 | 96 | 0.0 | 0.0 | 0.00 | 0.28 | 0.28 | 84 | 1012.3 |
| 20260507121230 | 12 | 277 | 1.6 | 3.2 | 0.00 | 0.28 | 0.28 | 80 | 1012.3 |
| 20260507120726 | 12 | 173 | 0.0 | 1.6 | 0.00 | 0.28 | 0.28 | 80 | 1012.3 |
| 20260507120224 | 12 | 60 | 1.6 | 3.2 | 0.00 | 0.28 | 0.28 | 80 | 1012.7 |
| 20260507115719 | 12 | 153 | 0.0 | 0.0 | 0.00 | 0.28 | 0.28 | 80 | 1012.3 |
| 20260507115215 | 12 | 158 | 0.0 | 1.6 | 0.00 | 0.28 | 0.28 | 82 | 1012.2 |
| 20260507114711 | 12 | 93 | 0.0 | 1.6 | 0.00 | 0.28 | 0.28 | 84 | 1012.2 |
| 20260507114209 | 12 | 80 | 0.0 | 3.2 | 0.00 | 0.28 | 0.28 | 87 | 1012.3 |
| 20260507113706 | 12 | 262 | 0.0 | 1.6 | 0.00 | 0.28 | 0.28 | 89 | 1012.0 |
| 20260507113203 | 12 | 262 | 0.0 | 0.0 | 0.00 | 0.28 | 0.28 | 89 | 1011.9 |
| 20260507112700 | 12 | 262 | 0.0 | 0.0 | 0.00 | 0.28 | 0.28 | 90 | 1011.8 |
| 20260507112157 | 12 | 262 | 0.0 | 0.0 | 0.00 | 0.28 | 0.28 | 89 | 1011.9 |
| 20260507111654 | 12 | 262 | 0.0 | 0.0 | 0.00 | 0.28 | 0.28 | 89 | 1012.1 |
| 20260507111151 | 12 | 262 | 0.0 | 0.0 | 0.00 | 0.28 | 0.28 | 89 | 1011.9 |
| 20260507110647 | 12 | 262 | 0.0 | 1.6 | 0.00 | 0.28 | 0.28 | 90 | 1011.6 |
| 20260507110144 | 12 | 262 | 1.6 | 1.6 | 0.00 | 0.28 | 0.28 | 90 | 1011.8 |
| 20260507105641 | 12 | 262 | 0.0 | 0.0 | 0.00 | 0.28 | 0.28 | 90 | 1011.9 |
| 20260507105137 | 12 | 262 | 0.0 | 0.0 | 0.00 | 0.28 | 0.28 | 91 | 1011.9 |
| 20260507104634 | 12 | 262 | 0.0 | 1.6 | 0.00 | 0.28 | 0.28 | 92 | 1011.8 |
| 20260507104130 | 12 | 262 | 0.0 | 0.0 | 0.00 | 0.28 | 0.28 | 92 | 1011.8 |
| 20260507103627 | 12 | 262 | 0.0 | 0.0 | 0.00 | 0.28 | 0.28 | 91 | 1011.8 |
| 20260507103124 | 12 | 262 | 0.0 | 0.0 | 0.00 | 0.28 | 0.28 | 92 | 1011.8 |
| 20260507102620 | 12 | 262 | 0.0 | 0.0 | 0.00 | 0.28 | 0.28 | 91 | 1011.7 |
| 20260507102116 | 12 | 263 | 0.0 | 0.0 | 0.00 | 0.28 | 0.28 | 91 | 1011.7 |
| 20260507101612 | 12 | 262 | 0.0 | 0.0 | 0.00 | 0.28 | 0.28 | 91 | 1011.5 |
| 20260507101108 | 12 | 262 | 0.0 | 0.0 | 0.18 | 0.28 | 0.28 | 91 | 1011.5 |
| 20260507100606 | 12 | 262 | 0.0 | 0.0 | 0.18 | 0.28 | 0.28 | 91 | 1011.5 |
| 20260507100104 | 12 | 262 | 0.0 | 0.0 | 0.00 | 0.25 | 0.25 | 91 | 1011.4 |
| 20260507095601 | 12 | 262 | 0.0 | 0.0 | 0.00 | 0.25 | 0.25 | 91 | 1011.3 |
| 20260507095058 | 12 | 262 | 0.0 | 0.0 | 0.00 | 0.25 | 0.25 | 91 | 1011.3 |
| 20260507094554 | 12 | 262 | 0.0 | 0.0 | 0.00 | 0.25 | 0.25 | 90 | 1011.4 |
| 20260507094051 | 12 | 262 | 0.0 | 0.0 | 0.00 | 0.25 | 0.25 | 91 | 1011.3 |
| 20260507093549 | 12 | 262 | 0.0 | 0.0 | 0.00 | 0.25 | 0.25 | 91 | 1011.4 |
| 20260507093047 | 12 | 262 | 0.0 | 0.0 | 0.00 | 0.25 | 0.25 | 90 | 1011.3 |
| 20260507092543 | 12 | 220 | 0.0 | 0.0 | 0.00 | 0.25 | 0.25 | 90 | 1011.2 |
| 20260507092040 | 12 | 183 | 0.0 | 0.0 | 0.00 | 0.25 | 0.25 | 90 | 1011.1 |
| 20260507091537 | 12 | 183 | 0.0 | 0.0 | 0.00 | 0.25 | 0.25 | 90 | 1011.1 |
| 20260507091033 | 12 | 182 | 0.0 | 0.0 | 0.00 | 0.25 | 0.25 | 90 | 1011.1 |
| 20260507090529 | 12 | 272 | 0.0 | 1.6 | 0.00 | 0.25 | 0.25 | 89 | 1011.3 |
| 20260507090026 | 12 | 277 | 0.0 | 1.6 | 0.00 | 0.25 | 0.25 | 90 | 1011.2 |
| 20260507085523 | 12 | 290 | 0.0 | 0.0 | 0.00 | 0.25 | 0.25 | 91 | 1011.1 |
| 20260507085020 | 12 | 278 | 0.0 | 0.0 | 0.00 | 0.25 | 0.25 | 92 | 1011.1 |
| 20260507084516 | 12 | 280 | 0.0 | 1.6 | 0.00 | 0.25 | 0.25 | 92 | 1011.0 |
| 20260507084013 | 12 | 306 | 0.0 | 0.0 | 0.00 | 0.25 | 0.25 | 92 | 1010.9 |
| 20260507083509 | 12 | 306 | 0.0 | 0.0 | 0.00 | 0.25 | 0.25 | 91 | 1011.1 |
| 20260507083007 | 12 | 306 | 0.0 | 0.0 | 0.00 | 0.25 | 0.25 | 91 | 1011.2 |
| 20260507082503 | 12 | 306 | 0.0 | 0.0 | 0.00 | 0.25 | 0.25 | 91 | 1011.2 |
| 20260507081959 | 12 | 306 | 0.0 | 0.0 | 0.00 | 0.25 | 0.25 | 90 | 1011.1 |
| 20260507081455 | 12 | 306 | 0.0 | 1.6 | 0.00 | 0.25 | 0.25 | 90 | 1010.7 |
| 20260507080952 | 12 | 328 | 0.0 | 0.0 | 0.00 | 0.25 | 0.25 | 90 | 1010.8 |
| 20260507080448 | 12 | 356 | 0.0 | 0.0 | 0.00 | 0.25 | 0.25 | 89 | 1010.5 |
| 20260507075943 | 12 | 356 | 0.0 | 1.6 | 0.13 | 0.25 | 0.25 | 89 | 1010.5 |
| 20260507075440 | 12 | 352 | 0.0 | 0.0 | 0.30 | 0.25 | 0.25 | 88 | 1010.7 |
| 20260507074937 | 12 | 289 | 0.0 | 1.6 | 0.18 | 0.23 | 0.23 | 88 | 1010.4 |
| 20260507074433 | 13 | 289 | 1.6 | 1.6 | 0.00 | 0.20 | 0.20 | 88 | 1010.5 |
| 20260507073932 | 13 | 135 | 0.0 | 1.6 | 0.00 | 0.20 | 0.20 | 87 | 1010.4 |
| 20260507073428 | 13 | 245 | 0.0 | 1.6 | 0.00 | 0.20 | 0.20 | 87 | 1010.2 |
| 20260507072925 | 13 | 90 | 0.0 | 1.6 | 0.00 | 0.20 | 0.20 | 87 | 1010.1 |
| 20260507072422 | 13 | 54 | 1.6 | 3.2 | 0.00 | 0.20 | 0.20 | 87 | 1010.0 |
| 20260507071920 | 13 | 266 | 1.6 | 3.2 | 0.00 | 0.20 | 0.20 | 88 | 1010.2 |
| 20260507071416 | 13 | 285 | 0.0 | 0.0 | 0.00 | 0.20 | 0.20 | 88 | 1010.4 |
| 20260507070913 | 13 | 0 | 0.0 | 1.6 | 0.00 | 0.20 | 0.20 | 88 | 1010.2 |
| 20260507070410 | 13 | 262 | 0.0 | 1.6 | 0.00 | 0.20 | 0.20 | 89 | 1010.0 |
| 20260507065907 | 13 | 235 | 1.6 | 3.2 | 0.00 | 0.20 | 0.20 | 89 | 1010.4 |
| 20260507065404 | 13 | 85 | 0.0 | 0.0 | 0.00 | 0.20 | 0.20 | 89 | 1010.3 |
| 20260507064900 | 13 | 134 | 0.0 | 1.6 | 0.00 | 0.20 | 0.20 | 89 | 1010.0 |
| 20260507064359 | 13 | 137 | 1.6 | 1.6 | 0.00 | 0.20 | 0.20 | 89 | 1010.2 |
| 20260507063856 | 13 | 346 | 0.0 | 1.6 | 0.00 | 0.20 | 0.20 | 89 | 1010.4 |
| 20260507063353 | 13 | 36 | 0.0 | 1.6 | 0.00 | 0.20 | 0.20 | 89 | 1010.2 |
| 20260507062850 | 13 | 281 | 0.0 | 1.6 | 0.00 | 0.20 | 0.20 | 89 | 1010.2 |
| 20260507062347 | 13 | 280 | 1.6 | 1.6 | 0.00 | 0.20 | 0.20 | 89 | 1010.5 |
| 20260507061845 | 13 | 260 | 0.0 | 3.2 | 0.00 | 0.20 | 0.20 | 89 | 1010.0 |
| 20260507061343 | 13 | 180 | 0.0 | 1.6 | 0.00 | 0.20 | 0.20 | 89 | 1010.0 |
| 20260507060841 | 13 | 171 | 0.0 | 1.6 | 0.00 | 0.20 | 0.20 | 89 | 1010.1 |
| 20260507060337 | 13 | 226 | 0.0 | 1.6 | 0.00 | 0.20 | 0.20 | 89 | 1010.3 |
| 20260507055834 | 13 | 38 | 1.6 | 3.2 | 0.13 | 0.20 | 0.20 | 88 | 1009.7 |
| 20260507055329 | 13 | 214 | 0.0 | 4.8 | 0.13 | 0.20 | 0.20 | 88 | 1009.8 |
| 20260507054826 | 13 | 94 | 1.6 | 1.6 | 0.00 | 0.18 | 0.18 | 88 | 1010.1 |
| 20260507054322 | 13 | 281 | 0.0 | 1.6 | 0.18 | 0.18 | 0.18 | 87 | 1010.4 |
| 20260507053820 | 13 | 272 | 0.0 | 1.6 | 0.18 | 0.18 | 0.18 | 87 | 1010.3 |
| 20260507053317 | 13 | 259 | 1.6 | 1.6 | 0.00 | 0.15 | 0.15 | 87 | 1010.4 |
| 20260507052816 | 13 | 135 | 0.0 | 1.6 | 0.00 | 0.15 | 0.15 | 86 | 1010.0 |
| 20260507052312 | 13 | 248 | 0.0 | 1.6 | 0.00 | 0.15 | 0.15 | 87 | 1010.4 |
| 20260507051810 | 14 | 148 | 0.0 | 1.6 | 0.00 | 0.15 | 0.15 | 86 | 1009.6 |
| 20260507051307 | 14 | 48 | 0.0 | 1.6 | 0.00 | 0.15 | 0.15 | 86 | 1010.1 |
| 20260507050804 | 14 | 240 | 0.0 | 1.6 | 0.00 | 0.15 | 0.15 | 86 | 1010.0 |
| 20260507050300 | 14 | 305 | 1.6 | 3.2 | 0.00 | 0.15 | 0.15 | 87 | 1010.4 |
| 20260507045757 | 14 | 47 | 1.6 | 3.2 | 0.00 | 0.15 | 0.15 | 87 | 1010.3 |
| 20260507045253 | 14 | 92 | 0.0 | 3.2 | 0.00 | 0.15 | 0.15 | 86 | 1010.1 |
| 20260507044751 | 15 | 155 | 0.0 | 1.6 | 0.13 | 0.15 | 0.15 | 88 | 1010.0 |
| 20260507044247 | 15 | 291 | 1.6 | 3.2 | 0.43 | 0.15 | 0.15 | 87 | 1010.9 |
| 20260507043743 | 15 | 284 | 0.0 | 0.0 | 0.48 | 0.13 | 0.13 | 86 | 1010.0 |
| 20260507043240 | 15 | 284 | 0.0 | 0.0 | 0.30 | 0.08 | 0.08 | 83 | 1010.4 |
| 20260507042736 | 16 | 263 | 0.0 | 1.6 | 0.30 | 0.05 | 0.05 | 78 | 1010.6 |
| 20260507042232 | 16 | 266 | 0.0 | 1.6 | 0.18 | 0.03 | 0.03 | 75 | 1010.7 |
| 20260507041730 | 16 | 292 | 1.6 | 1.6 | 0.00 | 0.00 | 0.00 | 71 | 1010.4 |
| 20260507041226 | 16 | 46 | 0.0 | 3.2 | 0.00 | 0.00 | 0.00 | 72 | 1010.5 |
| 20260507040723 | 16 | 254 | 1.6 | 4.8 | 0.00 | 0.00 | 0.00 | 72 | 1010.3 |
| 20260507040219 | 16 | 240 | 1.6 | 3.2 | 0.00 | 0.00 | 0.00 | 72 | 1010.4 |
| 20260507035715 | 16 | 261 | 1.6 | 1.6 | 0.00 | 0.71 | 0.71 | 73 | 1010.2 |
| 20260507035211 | 17 | 243 | 3.2 | 3.2 | 0.00 | 0.71 | 0.71 | 73 | 1009.9 |
| 20260507034708 | 17 | 143 | 0.0 | 3.2 | 0.00 | 0.71 | 0.71 | 71 | 1009.7 |
| 20260507034206 | 17 | 195 | 0.0 | 3.2 | 0.00 | 0.71 | 0.71 | 70 | 1010.0 |
| 20260507033704 | 17 | 258 | 1.6 | 4.8 | 0.00 | 0.71 | 0.71 | 70 | 1009.8 |
| 20260507033201 | 17 | 346 | 3.2 | 12.9 | 0.00 | 0.71 | 0.71 | 69 | 1010.1 |
| 20260507032658 | 17 | 265 | 8.0 | 9.7 | 0.00 | 0.71 | 0.71 | 69 | 1009.7 |
| 20260507032153 | 17 | 204 | 0.0 | 3.2 | 0.00 | 0.71 | 0.71 | 70 | 1009.8 |
| 20260507031651 | 17 | 273 | 3.2 | 4.8 | 0.00 | 0.71 | 0.71 | 70 | 1009.9 |
| 20260507031147 | 17 | 288 | 1.6 | 3.2 | 0.00 | 0.71 | 0.71 | 70 | 1009.9 |
| 20260507030644 | 17 | 248 | 0.0 | 1.6 | 0.00 | 0.71 | 0.71 | 70 | 1009.3 |
| 20260507030142 | 17 | 38 | 3.2 | 6.4 | 0.00 | 0.71 | 0.71 | 71 | 1009.2 |
| 20260507025639 | 18 | 0 | 0.0 | 4.8 | 0.00 | 0.71 | 0.71 | 72 | 1009.3 |
| 20260507025136 | 18 | 22 | 3.2 | 4.8 | 0.00 | 0.71 | 0.71 | 73 | 1009.4 |
| 20260507024634 | 18 | 132 | 0.0 | 1.6 | 0.00 | 0.71 | 0.71 | 74 | 1009.4 |
| 20260507024131 | 18 | 273 | 0.0 | 1.6 | 0.00 | 0.71 | 0.71 | 76 | 1009.3 |
| 20260507023626 | 18 | 171 | 0.0 | 1.6 | 0.00 | 0.71 | 0.71 | 77 | 1009.4 |
| 20260507023124 | 18 | 292 | 3.2 | 4.8 | 0.00 | 0.71 | 0.71 | 77 | 1009.2 |
| 20260507022621 | 18 | 298 | 0.0 | 1.6 | 0.00 | 0.71 | 0.71 | 79 | 1008.9 |
| 20260507022116 | 18 | 73 | 1.6 | 3.2 | 0.00 | 0.71 | 0.71 | 80 | 1009.2 |
| 20260507021612 | 19 | 344 | 0.0 | 1.6 | 0.00 | 0.71 | 0.71 | 81 | 1008.7 |
| 20260507021108 | 19 | 257 | 1.6 | 3.2 | 0.00 | 0.71 | 0.71 | 81 | 1008.9 |
| 20260507020607 | 19 | 72 | 1.6 | 1.6 | 0.00 | 0.71 | 0.71 | 82 | 1008.9 |
| 20260507015602 | 19 | 278 | 0.0 | 0.0 | 0.00 | 0.71 | 0.71 | 82 | 1008.9 |
| 20260507015058 | 19 | 238 | 0.0 | 0.0 | 0.00 | 0.71 | 0.71 | 83 | 1008.8 |
| 20260507014555 | 19 | 238 | 0.0 | 1.6 | 0.00 | 0.71 | 0.71 | 83 | 1009.0 |
| 20260507014050 | 19 | 238 | 0.0 | 0.0 | 0.00 | 0.71 | 0.71 | 83 | 1008.6 |
| 20260507013548 | 19 | 238 | 0.0 | 0.0 | 0.00 | 0.71 | 0.71 | 83 | 1008.7 |
| 20260507013045 | 18 | 238 | 0.0 | 0.0 | 0.00 | 0.71 | 0.71 | 84 | 1008.8 |
| 20260507012542 | 18 | 238 | 0.0 | 0.0 | 0.00 | 0.71 | 0.71 | 84 | 1009.0 |
| 20260507012038 | 18 | 238 | 0.0 | 0.0 | 0.00 | 0.71 | 0.71 | 84 | 1009.0 |
| 20260507011536 | 18 | 238 | 0.0 | 0.0 | 0.00 | 0.71 | 0.71 | 84 | 1008.9 |
| 20260507011031 | 18 | 238 | 0.0 | 0.0 | 0.00 | 0.71 | 0.71 | 84 | 1009.1 |
| 20260507010526 | 18 | 238 | 0.0 | 0.0 | 0.00 | 0.71 | 0.71 | 84 | 1009.0 |
| 20260507010023 | 18 | 238 | 0.0 | 0.0 | 0.00 | 0.71 | 0.71 | 84 | 1009.2 |
| 20260507005520 | 18 | 238 | 0.0 | 0.0 | 0.00 | 0.71 | 0.71 | 84 | 1008.9 |
| 20260507005017 | 18 | 238 | 0.0 | 0.0 | 0.00 | 0.71 | 0.71 | 83 | 1009.1 |
| 20260507004514 | 18 | 238 | 0.0 | 0.0 | 0.00 | 0.71 | 0.71 | 83 | 1008.9 |
| 20260507004011 | 18 | 238 | 0.0 | 0.0 | 0.00 | 0.71 | 0.71 | 83 | 1008.8 |
| 20260507003506 | 18 | 238 | 0.0 | 0.0 | 0.00 | 0.71 | 0.71 | 83 | 1008.9 |
| 20260507003001 | 18 | 238 | 0.0 | 0.0 | 0.00 | 0.71 | 0.71 | 83 | 1008.8 |
| 20260507002458 | 19 | 238 | 0.0 | 0.0 | 0.00 | 0.71 | 0.71 | 82 | 1008.9 |
| 20260507001955 | 19 | 238 | 0.0 | 0.0 | 0.00 | 0.71 | 0.71 | 80 | 1008.8 |
| 20260507001451 | 20 | 238 | 0.0 | 0.0 | 0.00 | 0.71 | 0.71 | 80 | 1008.5 |
| 20260507000949 | 20 | 238 | 0.0 | 0.0 | 0.00 | 0.71 | 0.71 | 79 | 1008.8 |
| 20260507000444 | 20 | 238 | 0.0 | 0.0 | 0.00 | 0.71 | 0.71 | 78 | 1008.3 |
| 20260506235940 | 20 | 238 | 0.0 | 0.0 | 0.00 | 0.71 | 0.71 | 75 | 1008.5 |
| 20260506235438 | 20 | 238 | 0.0 | 0.0 | 0.00 | 0.71 | 0.71 | 75 | 1008.3 |
| 20260506234933 | 20 | 238 | 0.0 | 0.0 | 0.00 | 0.71 | 0.71 | 74 | 1008.4 |
| 20260506234431 | 20 | 238 | 0.0 | 0.0 | 0.00 | 0.71 | 0.71 | 74 | 1008.2 |
| 20260506233929 | 20 | 235 | 0.0 | 0.0 | 0.00 | 0.71 | 0.71 | 73 | 1008.1 |
| 20260506233425 | 20 | 218 | 0.0 | 1.6 | 0.00 | 0.71 | 0.71 | 73 | 1007.9 |
| 20260506232921 | 20 | 273 | 1.6 | 3.2 | 0.00 | 0.71 | 0.71 | 73 | 1008.1 |
| 20260506232418 | 20 | 271 | 0.0 | 0.0 | 0.00 | 0.71 | 0.71 | 73 | 1007.9 |
| 20260506231914 | 20 | 272 | 0.0 | 1.6 | 0.00 | 0.71 | 0.71 | 73 | 1008.2 |
| 20260506231411 | 20 | 276 | 1.6 | 6.4 | 0.00 | 0.71 | 0.71 | 72 | 1007.8 |
| 20260506230909 | 20 | 300 | 1.6 | 1.6 | 0.00 | 0.71 | 0.71 | 73 | 1007.9 |
| 20260506230405 | 21 | 292 | 0.0 | 6.4 | 0.00 | 0.71 | 0.71 | 72 | 1007.8 |
| 20260506225901 | 21 | 216 | 0.0 | 3.2 | 0.00 | 0.71 | 0.71 | 72 | 1007.8 |
| 20260506225359 | 21 | 284 | 1.6 | 3.2 | 0.00 | 0.71 | 0.71 | 71 | 1007.8 |
| 20260506224855 | 21 | 270 | 1.6 | 3.2 | 0.00 | 0.71 | 0.71 | 71 | 1007.8 |
| 20260506224353 | 21 | 269 | 1.6 | 3.2 | 0.00 | 0.71 | 0.71 | 71 | 1007.9 |
| 20260506223849 | 21 | 332 | 1.6 | 1.6 | 0.00 | 0.71 | 0.71 | 72 | 1007.9 |
| 20260506223344 | 21 | 298 | 4.8 | 6.4 | 0.00 | 0.71 | 0.71 | 71 | 1007.9 |
| 20260506222842 | 21 | 248 | 1.6 | 6.4 | 0.00 | 0.71 | 0.71 | 71 | 1008.0 |
| 20260506222337 | 21 | 81 | 1.6 | 4.8 | 0.00 | 0.71 | 0.71 | 71 | 1007.7 |
| 20260506221835 | 21 | 341 | 3.2 | 4.8 | 0.00 | 0.71 | 0.71 | 70 | 1007.8 |
| 20260506221333 | 21 | 254 | 1.6 | 3.2 | 0.00 | 0.71 | 0.71 | 69 | 1007.8 |
| 20260506220830 | 21 | 275 | 0.0 | 4.8 | 0.00 | 0.71 | 0.71 | 70 | 1007.9 |
| 20260506220325 | 21 | 236 | 0.0 | 0.0 | 0.00 | 0.71 | 0.71 | 72 | 1007.7 |
| 20260506215822 | 21 | 95 | 0.0 | 1.6 | 0.00 | 0.71 | 0.71 | 72 | 1007.8 |
| 20260506215318 | 21 | 204 | 0.0 | 6.4 | 0.00 | 0.71 | 0.71 | 70 | 1008.0 |
| 20260506214814 | 21 | 273 | 1.6 | 3.2 | 0.00 | 0.71 | 0.71 | 70 | 1007.7 |
| 20260506214311 | 21 | 238 | 6.4 | 9.7 | 0.00 | 0.71 | 0.71 | 69 | 1008.1 |
| 20260506213810 | 21 | 260 | 3.2 | 4.8 | 0.00 | 0.71 | 0.71 | 68 | 1008.1 |
| 20260506213306 | 22 | 297 | 4.8 | 6.4 | 0.00 | 0.71 | 0.71 | 67 | 1008.0 |
| 20260506212804 | 21 | 220 | 1.6 | 4.8 | 0.00 | 0.71 | 0.71 | 69 | 1007.7 |
| 20260506212259 | 21 | 228 | 3.2 | 9.7 | 0.00 | 0.71 | 0.71 | 68 | 1007.9 |
| 20260506211754 | 22 | 268 | 3.2 | 14.5 | 0.00 | 0.71 | 0.71 | 68 | 1007.7 |
| 20260506211251 | 22 | 49 | 0.0 | 3.2 | 0.00 | 0.71 | 0.71 | 69 | 1007.5 |
| 20260506210748 | 22 | 290 | 3.2 | 3.2 | 0.00 | 0.71 | 0.71 | 69 | 1007.6 |
| 20260506210245 | 21 | 327 | 3.2 | 6.4 | 0.00 | 0.71 | 0.71 | 68 | 1007.7 |
| 20260506205742 | 21 | 259 | 4.8 | 6.4 | 0.00 | 0.71 | 0.71 | 68 | 1007.6 |
| 20260506205237 | 21 | 184 | 3.2 | 3.2 | 0.00 | 0.71 | 0.71 | 69 | 1007.5 |
| 20260506204735 | 21 | 279 | 1.6 | 14.5 | 0.00 | 0.71 | 0.71 | 68 | 1007.5 |
| 20260506204232 | 21 | 319 | 6.4 | 9.7 | 0.00 | 0.71 | 0.71 | 69 | 1007.2 |
| 20260506203730 | 21 | 200 | 3.2 | 11.3 | 0.00 | 0.71 | 0.71 | 70 | 1007.2 |
| 20260506203226 | 21 | 221 | 1.6 | 11.3 | 0.00 | 0.71 | 0.71 | 70 | 1007.2 |
| 20260506202724 | 21 | 306 | 6.4 | 12.9 | 0.00 | 0.71 | 0.71 | 69 | 1007.4 |
| 20260506202221 | 21 | 218 | 4.8 | 9.7 | 0.00 | 0.71 | 0.71 | 69 | 1007.4 |
| 20260506201717 | 21 | 88 | 3.2 | 4.8 | 0.00 | 0.71 | 0.71 | 70 | 1007.3 |
| 20260506201214 | 21 | 237 | 1.6 | 12.9 | 0.00 | 0.71 | 0.71 | 72 | 1007.5 |
| 20260506200711 | 21 | 183 | 4.8 | 11.3 | 0.00 | 0.71 | 0.71 | 71 | 1007.7 |
| 20260506200208 | 21 | 208 | 1.6 | 6.4 | 0.00 | 0.71 | 0.71 | 72 | 1007.7 |
| 20260506195705 | 21 | 189 | 1.6 | 6.4 | 0.00 | 0.71 | 0.71 | 72 | 1007.4 |
| 20260506195201 | 21 | 136 | 6.4 | 22.5 | 0.00 | 0.71 | 0.71 | 71 | 1007.5 |
| 20260506194658 | 21 | 266 | 3.2 | 4.8 | 0.00 | 0.71 | 0.71 | 74 | 1007.5 |
| 20260506194154 | 21 | 122 | 0.0 | 3.2 | 0.00 | 0.71 | 0.71 | 74 | 1007.5 |
| 20260506193652 | 20 | 275 | 3.2 | 14.5 | 0.00 | 0.71 | 0.71 | 74 | 1007.7 |
| 20260506193149 | 20 | 118 | 0.0 | 6.4 | 0.00 | 0.71 | 0.71 | 74 | 1007.5 |
| 20260506192646 | 20 | 313 | 3.2 | 9.7 | 0.00 | 0.71 | 0.71 | 73 | 1007.7 |
| 20260506192142 | 20 | 128 | 3.2 | 6.4 | 0.00 | 0.71 | 0.71 | 74 | 1007.6 |
| 20260506191639 | 20 | 56 | 1.6 | 3.2 | 0.00 | 0.71 | 0.71 | 74 | 1007.5 |
| 20260506191135 | 20 | 263 | 1.6 | 9.7 | 0.00 | 0.71 | 0.71 | 75 | 1007.8 |
| 20260506190633 | 20 | 123 | 1.6 | 9.7 | 0.00 | 0.71 | 0.71 | 74 | 1008.1 |
| 20260506190129 | 20 | 240 | 0.0 | 9.7 | 0.00 | 0.71 | 0.71 | 74 | 1008.1 |
| 20260506185626 | 20 | 266 | 1.6 | 4.8 | 0.00 | 0.71 | 0.71 | 75 | 1008.1 |
| 20260506185122 | 20 | 104 | 3.2 | 4.8 | 0.00 | 0.71 | 0.71 | 74 | 1007.9 |
| 20260506184620 | 20 | 262 | 3.2 | 3.2 | 0.00 | 0.71 | 0.71 | 73 | 1008.6 |
| 20260506184117 | 20 | 178 | 0.0 | 4.8 | 0.00 | 0.71 | 0.71 | 74 | 1008.3 |
| 20260506183614 | 20 | 315 | 0.0 | 4.8 | 0.00 | 0.71 | 0.71 | 75 | 1008.1 |
| 20260506183110 | 20 | 235 | 4.8 | 9.7 | 0.00 | 0.71 | 0.71 | 74 | 1008.2 |
| 20260506182608 | 20 | 260 | 1.6 | 6.4 | 0.00 | 0.71 | 0.71 | 75 | 1008.4 |
| 20260506182104 | 20 | 98 | 4.8 | 6.4 | 0.00 | 0.71 | 0.71 | 74 | 1008.6 |
| 20260506181602 | 20 | 178 | 1.6 | 3.2 | 0.00 | 0.71 | 0.71 | 75 | 1008.4 |
| 20260506181059 | 20 | 260 | 1.6 | 4.8 | 0.00 | 0.71 | 0.71 | 75 | 1008.4 |
| 20260506180555 | 20 | 187 | 1.6 | 9.7 | 0.00 | 0.71 | 0.71 | 74 | 1008.4 |
| 20260506180052 | 20 | 353 | 1.6 | 3.2 | 0.00 | 0.71 | 0.71 | 74 | 1008.4 |
| 20260506175548 | 20 | 129 | 1.6 | 6.4 | 0.00 | 0.71 | 0.71 | 75 | 1008.6 |
| 20260506175045 | 20 | 267 | 3.2 | 11.3 | 0.00 | 0.71 | 0.71 | 75 | 1008.4 |
| 20260506174544 | 19 | 263 | 4.8 | 12.9 | 0.00 | 0.71 | 0.71 | 76 | 1008.6 |
| 20260506174039 | 19 | 5 | 0.0 | 3.2 | 0.00 | 0.71 | 0.71 | 77 | 1008.5 |
| 20260506173537 | 18 | 277 | 3.2 | 6.4 | 0.00 | 0.71 | 0.71 | 78 | 1008.6 |
| 20260506173034 | 18 | 205 | 4.8 | 6.4 | 0.00 | 0.71 | 0.71 | 78 | 1008.7 |
| 20260506172531 | 18 | 106 | 3.2 | 6.4 | 0.00 | 0.71 | 0.71 | 80 | 1008.7 |
| 20260506172027 | 18 | 212 | 3.2 | 3.2 | 0.00 | 0.71 | 0.71 | 79 | 1008.5 |
| 20260506171525 | 18 | 271 | 3.2 | 3.2 | 0.00 | 0.71 | 0.71 | 80 | 1008.7 |
| 20260506171022 | 18 | 93 | 1.6 | 3.2 | 0.00 | 0.71 | 0.71 | 81 | 1008.9 |
| 20260506170520 | 18 | 113 | 1.6 | 3.2 | 0.00 | 0.71 | 0.71 | 80 | 1009.0 |
| 20260506170018 | 18 | 237 | 3.2 | 17.7 | 0.00 | 0.71 | 0.71 | 80 | 1008.9 |
| 20260506165516 | 18 | 335 | 3.2 | 9.7 | 0.00 | 0.71 | 0.71 | 81 | 1008.9 |
| 20260506165011 | 18 | 231 | 0.0 | 4.8 | 0.00 | 0.71 | 0.71 | 84 | 1009.0 |
| 20260506164508 | 18 | 305 | 3.2 | 6.4 | 0.00 | 0.71 | 0.71 | 83 | 1008.7 |
| 20260506164006 | 18 | 304 | 1.6 | 6.4 | 0.00 | 0.71 | 0.71 | 83 | 1009.1 |
| 20260506163501 | 18 | 124 | 1.6 | 3.2 | 0.00 | 0.71 | 0.71 | 85 | 1009.0 |
| 20260506162956 | 17 | 250 | 3.2 | 6.4 | 0.00 | 0.71 | 0.71 | 86 | 1009.0 |
| 20260506162454 | 17 | 302 | 3.2 | 6.4 | 0.00 | 0.71 | 0.71 | 88 | 1008.9 |
| 20260506161951 | 17 | 199 | 1.6 | 9.7 | 0.00 | 0.71 | 0.71 | 88 | 1009.3 |
| 20260506161449 | 17 | 130 | 0.0 | 3.2 | 0.00 | 0.71 | 0.71 | 88 | 1009.1 |
| 20260506160946 | 17 | 160 | 1.6 | 9.7 | 0.00 | 0.71 | 0.71 | 89 | 1009.2 |
| 20260506160443 | 17 | 236 | 1.6 | 3.2 | 0.00 | 0.71 | 0.71 | 88 | 1009.3 |
| 20260506155940 | 17 | 354 | 3.2 | 3.2 | 0.00 | 0.71 | 0.71 | 89 | 1009.1 |
| 20260506155438 | 17 | 223 | 0.0 | 1.6 | 0.00 | 0.71 | 0.71 | 89 | 1009.4 |
| 20260506153605 | 16 | 31 | 1.6 | 3.2 | 0.00 | 0.71 | 0.71 | 91 | 1009.4 |
| 20260506153102 | 16 | 90 | 1.6 | 4.8 | 0.00 | 0.71 | 0.71 | 91 | 1009.6 |
| 20260506152559 | 16 | 101 | 3.2 | 3.2 | 0.00 | 0.71 | 0.71 | 91 | 1009.4 |
| 20260506152057 | 16 | 157 | 0.0 | 6.4 | 0.18 | 0.71 | 0.71 | 92 | 1009.2 |
| 20260506151555 | 16 | 57 | 1.6 | 1.6 | 0.30 | 0.71 | 0.71 | 92 | 1009.5 |
| 20260506151052 | 16 | 88 | 1.6 | 1.6 | 0.30 | 0.69 | 0.69 | 92 | 1009.6 |
| 20260506150548 | 16 | 116 | 1.6 | 3.2 | 0.48 | 0.66 | 0.66 | 91 | 1009.8 |
| 20260506150045 | 16 | 92 | 1.6 | 3.2 | 0.18 | 0.61 | 0.61 | 91 | 1009.7 |
| 20260506145541 | 16 | 80 | 1.6 | 4.8 | 0.13 | 0.58 | 0.58 | 91 | 1010.0 |
| 20260506145039 | 16 | 170 | 0.0 | 3.2 | 0.13 | 0.58 | 0.58 | 90 | 1010.0 |
| 20260506144536 | 16 | 244 | 0.0 | 6.4 | 0.18 | 0.56 | 0.56 | 91 | 1010.1 |
| 20260506144033 | 16 | 253 | 1.6 | 3.2 | 0.13 | 0.53 | 0.53 | 90 | 1010.3 |
| 20260506143531 | 16 | 186 | 0.0 | 1.6 | 0.00 | 0.51 | 0.51 | 91 | 1010.1 |
| 20260506143029 | 16 | 151 | 1.6 | 1.6 | 0.00 | 0.51 | 0.51 | 91 | 1010.2 |
| 20260506142526 | 16 | 118 | 1.6 | 3.2 | 0.18 | 0.51 | 0.51 | 92 | 1010.2 |
| 20260506142024 | 16 | 106 | 0.0 | 1.6 | 0.13 | 0.48 | 0.48 | 92 | 1010.2 |
| 20260506141522 | 16 | 117 | 1.6 | 3.2 | 0.30 | 0.48 | 0.48 | 91 | 1010.2 |
| 20260506141020 | 16 | 312 | 1.6 | 3.2 | 0.48 | 0.46 | 0.46 | 91 | 1010.2 |